Location: Karabay?r
(36.9924°N, 30.6007°E)
Time: 02:56:08
(UTC+00:00)

Daily predictions for brighter satellites

Satellite Brightness Start Highest point End
(mag) Time Altitude Azimuth Time Altitude Azimuth Time Altitude Azimuth
ATLAS 3B R/B 4.2 00:58:18 25° ESE 00:59:05 26° ESE 01:04:22 10° NE
CZ-3 R/B 4.2 01:06:30 43° SW 01:16:54 58° S 01:28:03 10° E
H-2A R/B 4.3 01:46:35 10° SSE 01:47:53 19° SSE 01:47:53 19° SSE
Cosmos 1833 Rocket 2.8 01:52:04 74° ENE 01:52:04 74° ENE 01:57:17 10° NNE
Cosmos 2279 Rocket 4.1 01:50:33 10° N 01:58:08 56° S 02:02:55 10° S
ALOS 3.9 01:54:59 10° NNE 01:59:11 32° E 02:03:21 10° SSE
CZ-4B R/B 4.2 01:58:12 10° ESE 02:00:39 18° ENE 02:03:05 10° NNE
CENTAUR R/B 3.5 02:03:00 31° NNW 02:03:00 31° NNW 02:07:46 10° NNE
Cosmos 1626 4.1 02:05:15 24° NE 02:05:15 24° NE 02:06:58 10° NNE
Cosmos 2082 Rocket 2.4 02:10:13 18° S 02:14:23 68° ESE 02:19:58 10° NNE
Cosmos 1656 3.5 02:13:42 56° NW 02:14:55 77° WSW 02:20:34 10° SSE
CBERS 1 LM4 rocket 4.2 02:15:43 10° NNE 02:20:36 82° WNW 02:22:05 45° SSW
Cosmos 1461 3.3 02:21:23 55° NNW 02:21:23 55° NNW 02:25:20 10° NNE
Cosmos 1484 Rocket 3.2 02:20:58 10° NNE 02:24:45 58° E 02:28:27 10° S
Cosmos 2251 Rocket 3.7 02:21:42 10° S 02:27:02 75° ESE 02:32:23 10° NNE
CZ-2C R/B 3.2 02:26:12 10° N 02:29:29 35° NNW 02:29:29 35° NNW
USA 290 3.3 02:33:50 36° NNE 02:33:50 36° NNE 02:35:53 10° NNE
ISS -1.4 02:36:08 16° N 02:36:08 16° N 02:37:18 10° NNE
COSMOS 2406 4.0 02:39:29 31° NW 02:39:29 31° NW 02:44:06 10° N
Centaur D-1AR AC-48 4.4 02:34:51 18° SW 02:39:45 36° SSE 03:13:22 10° ESE
Centaur D-1AR AC-48 4.4 02:34:51 18° SW 02:39:46 36° SSE 03:13:22 10° ESE
Cosmos 1697 Rocket 2.6 02:35:15 10° NNW 02:40:56 88° WSW 02:46:36 10° SSE
Meteor 2-5 Rocket 3.6 02:36:27 10° SSW 02:42:05 71° W 02:47:53 10° N
DELTA 2 R/B (1) 4.1 02:43:38 34° WSW 02:45:18 43° SSW 02:50:35 10° SE
Elektron 1 4.4 02:48:13 42° NNW 02:48:13 42° NNW 02:50:36 10° NNE
Lacrosse 5 rocket 3.1 02:50:06 15° NNW 02:50:06 15° NNW 02:51:39 10° N
ATLAS 3B R/B 2.7 02:45:39 25° WSW 02:49:20 52° NW 02:55:48 10° NNE
Meteor 1-31 Rocket 2.7 02:45:32 10° NNE 02:49:30 88° ESE 02:53:24 10° SSW
FENGYUN 3A 3.6 02:45:28 10° N 02:50:53 72° WNW 02:56:17 10° SSW
CZ-4B R/B 3.8 02:49:30 10° NNE 02:53:31 52° E 02:57:42 10° S
ADEOS Rocket 3.3 02:53:04 10° SSW 02:57:57 33° W 03:02:53 10° NNW
Meteor 2-13 Rocket 4.4 02:52:42 10° SSW 02:58:46 60° W 03:04:49 10° N
Cosmos 1092 Rocket 3.9 02:53:01 10° SSW 02:59:07 69° W 03:05:20 10° N
Cosmos 967 Rocket 4.4 02:53:53 10° NNW 03:00:12 89° ENE 03:06:28 10° SSE
SAR-Lupe-4 3.6 02:57:05 10° SSE 03:00:39 80° ENE 03:04:13 10° N
ERS-2 2.4 02:58:47 10° S 03:02:14 42° W 03:04:43 17° NW
Nadezhda 4 Rocket 4.4 02:57:59 10° SW 03:03:34 37° WNW 03:09:12 10° N
Cosmos 1980 Rocket 2.4 02:58:05 10° NNW 03:03:42 75° ENE 03:09:16 10° SSE
Geosat 3.9 02:59:06 10° SSE 03:04:05 69° WSW 03:09:06 10° NNW
Cosmos 1726 Rocket 3.5 03:00:50 10° N 03:05:18 75° W 03:09:44 10° S
ATLAS CENTAUR R/B 3.1 03:03:06 10° S 03:06:42 32° ESE 03:10:08 10° NE
Cosmos 407 Rocket 4.2 03:04:33 10° S 03:09:32 57° ESE 03:14:34 10° NNE
Cosmos 2228 3.3 03:06:27 10° NNW 03:10:38 45° W 03:14:49 10° SSW
ADEOS 3.9 03:07:42 10° N 03:12:34 41° WNW 03:17:25 10° SW
Abrixas rocket 3.7 03:12:50 14° NNW 03:14:38 24° NNE 03:17:02 10° E
Aureole 3 3.9 03:10:24 10° N 03:14:53 89° E 03:20:37 10° S
SAR-Lupe-1 4.0 03:15:01 10° S 03:18:32 62° W 03:22:05 10° NNW
Cosmos 1606 Rocket 4.1 03:16:55 10° NNW 03:21:02 37° W 03:25:08 10° SSW
Cosmos 2360 4.4 03:15:48 10° NNW 03:21:17 50° WSW 03:26:44 10° S
CZ-4B R/B 4.5 03:19:00 10° N 03:22:47 35° WNW 03:26:23 10° SW
Cosmos 1400 Rocket 2.8 03:19:24 10° NNW 03:23:14 53° W 03:27:00 10° S
COSMO-SKYMED 1 2.5 03:21:32 10° S 03:25:51 76° WSW 03:30:12 10° NNW
CZ-4B R/B 2.8 03:30:04 10° SSW 03:32:44 21° W 03:35:23 10° NW
ARGOS Delta rocket 4.5 03:27:49 10° N 03:32:59 44° WNW 03:38:09 10° SW
Cosmos 2278 3.8 03:28:26 10° NNW 03:33:58 57° WSW 03:39:28 10° S
Cosmos 2322 Rocket 4.0 03:30:32 10° N 03:35:31 31° ENE 03:40:27 10° ESE
Meteor 2-10 Rocket 3.7 03:31:00 10° N 03:36:02 78° E 03:41:11 10° SSE
Cosmos 1833 Rocket 4.3 03:33:50 12° WNW 03:36:13 15° NW 03:39:17 10° NNW
ALOS 3.4 03:32:47 10° NNW 03:36:23 22° WNW 03:39:58 10° WSW
Cosmos 1300 3.7 03:34:09 10° NW 03:37:18 24° W 03:40:25 10° SW
Meteor 2-8 Rocket 4.4 03:32:49 10° NNW 03:38:58 72° W 03:45:04 10° S
Cosmos 1689 Rocket 2.5 03:37:48 10° S 03:40:34 37° W 03:43:19 10° NNW
Okean 1-7 Rocket 4.5 03:46:42 10° SW 03:50:40 29° WNW 03:54:38 10° NNW
H-2A R/B 2.6 03:49:15 10° NNE 03:53:36 89° ESE 03:57:46 10° SSW
CZ-4B R/B 4.4 03:49:43 10° NNE 03:54:52 47° E 03:59:55 10° S
Cosmos 1315 Rocket 2.8 03:50:53 10° NNW 03:55:00 74° W 03:59:06 10° S
Cosmos 2058 Rocket 3.8 03:51:23 10° NNW 03:55:22 32° W 03:59:19 10° SSW
Cosmos 1553 Rocket 3.9 03:49:31 10° NNW 03:55:34 67° W 04:01:34 10° S
